Weather in Chapayevskiy

Russia / Saratov Oblast     51°50′29″N   49°08′33″E
temp.,
°C
wind,
m/s
gust,
m/s
humid.,
%
clouds,
%
prec.,
mm/h
press.,
hPa
HPBL,
m
18 april, sun
sun1801:00+12sw3474100 0.5 101769
04:00+11w3786100 0.6 1017205
07:00+11wnw369096 0.1 1017251
10:00+13sw2277100 0.1 1017466
13:00+16w116259 1.9 1017889
16:00+17nnw2256100 3.5 10161166
19:00+15nne2469100 0.3 1016106
22:00+12ene3486100 0.5 1016118
19 april, mon
mon1901:00+12e5884100 0.6 1017291
04:00+10ene598299 0.6 1018339
07:00+9ene61074100 0.0 1018445
10:00+8ene6874100 0.0 1019430
13:00+12ene5766100 0.1 1019866
16:00+12e7969100 0.1 10191061
19:00+8e81274100 0.0 1021691
22:00+5e81274100 0.0 1023585
20 april, tue
tue2001:00+4e8127867 0.0 1024625
04:00+4e81378100 0.0 1025715
07:00+4e8136498 0.0 1025766
10:00+4e9136599 0.0 1027763
13:00+8ese10125230 0.0 10271127
16:00+11ese10124618 0.0 10251423
19:00+9ese91351100 0.0 10251127
22:00+7ese91550100 0.0 1025905
21 april, wed
wed2101:00+6ese91747100 0.0 1025743
04:00+4se91748100 0.0 1026634
07:00+4se81648100 0.0 1026684
10:00+6sse91646100 0.0 1026803
13:00+5sse91561100 1.3 1026771
16:00+6sse71463100 1.9 1026853
19:00+6sse61479100 0.1 1027686
22:00+6sse71581100 0.4 1028710
22 april, thu
thu2201:00+6sse61484100 0.5 1028711
04:00+6se61283100 0.8 1028651
07:00+5sse71388100 1.8 1029673
10:00+6se51277100 2.5 1029493
13:00+7se41066100 0.0 1030543
16:00+5se41078100 0.4 1030595
19:00+4sse41292100 3.5 1030517
22:00+5se3896100 7.8 1030391